This is the latest recevied weather packets stored in our database for station/object K1RFS. If no packets are shown the sender has not sent any weather packets the latest 10 day(s).
| Time | Temp. | Humidity | Pressure | Rain* | Wind** | Luminosity | Snow |
|---|---|---|---|---|---|---|---|
| 1778017571 | 13.33° C | 47% | 995.9 hPa | 0 mm | - | 66 W/m² | - |
| 1778017269 | 13.89° C | 47% | 995.9 hPa | 0 mm | - | 100 W/m² | - |
| 1778016966 | 13.89° C | 47% | 995.8 hPa | 0 mm | - | 127 W/m² | - |
| 1778016662 | 13.89° C | 48% | 996 hPa | 0 mm | - | 119 W/m² | - |
| 1778016358 | 13.89° C | 47% | 995.9 hPa | 0 mm | - | 112 W/m² | - |
| 1778016056 | 13.33° C | 48% | 995.7 hPa | 0 mm | - | 135 W/m² | - |
| 1778015752 | 13.89° C | 47% | 995.8 hPa | 0 mm | - | 121 W/m² | - |
| 1778015449 | 13.89° C | 48% | 995.7 hPa | 0 mm | - | 135 W/m² | - |
| 1778015146 | 13.89° C | 47% | 995.7 hPa | 0 mm | - | 182 W/m² | - |
| 1778014843 | 13.89° C | 47% | 995.8 hPa | 0 mm | - | 219 W/m² | - |
| 1778014541 | 13.89° C | 48% | 995.8 hPa | 0 mm | - | 292 W/m² | - |
| 1778014238 | 13.33° C | 49% | 995.8 hPa | 0 mm | - | 236 W/m² | - |
| 1778013935 | 13.33° C | 49% | 995.7 hPa | 0 mm | - | 222 W/m² | - |
| 1778013632 | 12.78° C | 50% | 995.6 hPa | 0 mm | - | 234 W/m² | - |
| 1778013329 | 12.78° C | 50% | 995.7 hPa | 0 mm | - | 189 W/m² | - |
| 1778013026 | 12.78° C | 51% | 995.8 hPa | 0 mm | - | 130 W/m² | - |
| 1778012722 | 12.78° C | 50% | 995.8 hPa | 0 mm | - | 188 W/m² | - |
| 1778012418 | 12.78° C | 51% | 995.7 hPa | 0 mm | - | 209 W/m² | - |
| 1778012115 | 12.78° C | 52% | 995.8 hPa | 0 mm | - | 196 W/m² | - |
| 1778011813 | 12.78° C | 52% | 996 hPa | 0 mm | - | 174 W/m² | - |
| 1778011511 | 12.78° C | 52% | 995.9 hPa | 0 mm | - | 195 W/m² | - |
| 1778011207 | 12.22° C | 53% | 995.9 hPa | 0 mm | - | 157 W/m² | - |
| 1778010903 | 12.22° C | 53% | 995.9 hPa | 0 mm | - | 142 W/m² | - |
| 1778010601 | 12.22° C | 54% | 995.9 hPa | 0 mm | - | 142 W/m² | - |
| 1778010293 | 12.22° C | 54% | 995.8 hPa | 0 mm | - | 163 W/m² | - |
* Rain latest hour (hover to see other rain measurements)
** Current wind speed in m/s (hover to see current wind gust speed)